Regional Weather Roundup
Issued by NWS New Orleans/Baton Rouge, LA

Home | Current Version | Previous Version | Text Only | Print | Product List | Glossary On
Versions: 1 2 3 4 5 6 7 8 9 10 11 12 13 14 15 16 17 18 19 20 21 22 23 24 25 26 27 28 29 30 31 32 33 34 35 36 37 38 39 40 41 42 43 44 45 46 47 48 49 50
000
ASUS44 KLIX 300010
RWRLIX
NEW ORLEANS REGIONAL WEATHER ROUNDUP
NATIONAL WEATHER SERVICE NEW ORLEANS LA
700 PM CDT FRI AUG 29 2014

NOTE: "FAIR" INDICATES FEW OR NO CLOUDS BELOW 12,000 FEET WITH NO
      SIGNIFICANT WEATHER AND/OR OBSTRUCTIONS TO VISIBILITY.
      SKY/WX - SKY CONDITION AND SIGNIFICANT WEATHER.
      TMP - AIR TEMPERATURE.     DP    - DEWPOINT TEMPERATURE.
      RH  - RELATIVE HUMIDITY.   PRES  - PRESSURE.
      HI  - HEAT INDEX.          WCI   - WIND CHILL INDEX.

*  THESE STATIONS ARE NOT NWS OR FAA STATIONS AND ARE NOT UNDER
   NWS QUALITY CONTROL.

LAZ038-040-048-061>063-065>067-069-300100-
SOUTHEAST LOUISIANA

CITY           SKY/WX    TMP DP  RH WIND       PRES   REMARKS
N.O. AUDUBON     N/A     79  76  90 MISG        N/A
6HR MIN TEMP:  75; 6HR MAX TEMP:  89; 6HR PCP:  0.06;

N.O. INTL ARPT CLOUDY    79  74  84 SE5       29.94F
6HR MIN TEMP:  76; 6HR MAX TEMP:  85; 6HR PCP:  0.05;

N.O. LAKEFRONT CLOUDY    79  75  87 SE7       29.96S
6HR MIN TEMP:  77; 6HR MAX TEMP:  83; 6HR PCP:  0.06;

N.O. DOWNTOWN*   N/A     79  72  78 SE8       29.96F
6HR MIN TEMP:  79; 6HR MAX TEMP:  84; 6HR PCP:  0.04;

SLIDELL        CLOUDY    77  75  93 CALM      29.97R
6HR MIN TEMP:  75; 6HR MAX TEMP:  86;

BATON ROUGE    LGT RAIN  79  74  84 SE7       29.94S
6HR MIN TEMP:  79; 6HR MAX TEMP:  85; 6HR PCP:  0.01;

BOOTHVILLE     CLOUDY    79  76  90 CALM      29.99R
6HR MIN TEMP:  78; 6HR MAX TEMP:  80; 6HR PCP:  0.11;

BELLE CHASSE   LGT RAIN  80  75  84 SE7       29.94F
6HR MIN TEMP:  76; 6HR MAX TEMP:  80; 6HR PCP:  0.02;

BOGALUSA*        N/A     77  73  86 CALM      29.97S
6HR MIN TEMP:  76; 6HR MAX TEMP:  91; 6HR PCP:  0.15;

GALLIANO*      NOT AVBL
NEW ROADS*       N/A     80  74  82 SE6       29.94R
6HR MIN TEMP:  80; 6HR MAX TEMP:  87; 6HR PCP:  0.01;

GONZALES*      DRIZZLE   77  77 100 E3        29.93F
6HR MIN TEMP:  76; 6HR MAX TEMP:  83; 6HR PCP:  0.04;

HAMMOND*       DRIZZLE   77  72  83 SE3       29.97R
HOUMA*         MOCLDY    75  73  94 SE12      29.95S
PORT FOURCHON* PTCLDY    77  73  88 E12       29.96F

$$

MSZ070-080>082-300100-
SOUTHERN MISSISSIPPI

CITY           SKY/WX    TMP DP  RH WIND       PRES   REMARKS
MCCOMB         CLOUDY    79  74  84 SE7       29.95F
6HR MIN TEMP:  79; 6HR MAX TEMP:  90; 6HR PCP: TRACE;

GULFPORT       CLOUDY    77  76  96 S3        29.98R
6HR MIN TEMP:  75; 6HR MAX TEMP:  87; 6HR PCP:  0.46;

BILOXI         CLOUDY    78  75  91 S2        29.98R
6HR MIN TEMP:  75; 6HR MAX TEMP:  89; 6HR PCP:  1.41;

PASCAGOULA     CLOUDY    77  76  96 E5        29.98S
6HR MIN TEMP:  77; 6HR MAX TEMP:  92; 6HR PCP:  0.01;


$$

COASTAL OBSERVATIONS
LAKE AND NEARSHORE STATIONS

STATION/POSITION TIME  TEMP    WIND        PRES    WAVE
                       AIR SEA DIR/SP/G            HT/PER
                 (UTC) (F)     (DEG/KT/KT) (MB)    (FT/S)
PASCAGOULA       0000   80     140/  4/  5 1014.9
WAVELAND YACHT   0000   77      90/  8/  9 1014.6
GRAND ISLE       0000   76 84  170/  5/ 10 1015.4
SOUTHWEST PASS   0000   77 88  310/  7/ 10 1015.4
NEW CANAL        0000   80 83  140/  2/  4 1014.6
SHELL BEACH      0000   78 81  140/  6/  8 1014.7

OFFSHORE STATIONS

STATION/POSITION TIME  TEMP    WIND        PRES    WAVE
                       AIR SEA DIR/SP/G            HT/PER
                 (UTC) (F)     (DEG/KT/KT) (MB)    (FT/S)
64 S DAUPHIN ISL 0000   81 84  240/  8/ 10 1015.7

$$




USA.gov is the U.S. government's official web portal to all federal, state and local government web resources and services.